Time,TemperatureF,DewpointF,PressureIn,WindDirection,WindDirectionDegrees,WindSpeedMPH,WindSpeedGustMPH,Humidity,HourlyPrecipIn,Conditions,Clouds,dailyrainin,SoftwareType,DateUTC
2013-03-13 00:00:00,39.6,29.2,29.99,WNW,292,4.0,12.0,66,0.00,,---,0.00,VWS V14.01,2013-03-13 04:00:00,
2013-03-13 00:10:00,39.5,29.1,29.99,WNW,292,3.0,8.0,66,0.00,,---,0.00,VWS V14.01,2013-03-13 04:10:00,
2013-03-13 00:20:00,39.3,28.9,29.98,WNW,292,2.0,10.0,66,0.00,,---,0.00,VWS V14.01,2013-03-13 04:20:00,
2013-03-13 00:30:00,39.1,28.7,29.98,West,270,3.0,8.0,66,0.00,,---,0.00,VWS V14.01,2013-03-13 04:30:00,
2013-03-13 00:40:00,38.9,28.9,29.98,West,270,1.0,7.0,67,0.00,,---,0.00,VWS V14.01,2013-03-13 04:40:00,
2013-03-13 00:50:00,38.8,28.8,29.98,WSW,248,2.0,7.0,67,0.00,,---,0.00,VWS V14.01,2013-03-13 04:50:00,
2013-03-13 01:00:00,38.5,28.5,29.98,West,270,1.0,7.0,67,0.00,,---,0.00,VWS V14.01,2013-03-13 05:00:00,
2013-03-13 01:10:00,38.2,28.6,29.98,WNW,292,2.0,7.0,68,0.00,,---,0.00,VWS V14.01,2013-03-13 05:10:00,
2013-03-13 01:20:00,38.0,28.4,29.99,West,270,1.0,6.0,68,0.00,,---,0.00,VWS V14.01,2013-03-13 05:20:00,
2013-03-13 01:30:00,37.8,28.2,29.99,West,270,2.0,6.0,68,0.00,,---,0.00,VWS V14.01,2013-03-13 05:30:00,
2013-03-13 01:40:00,37.8,28.2,29.99,WNW,292,2.0,11.0,68,0.00,,---,0.00,VWS V14.01,2013-03-13 05:40:00,
2013-03-13 01:50:00,37.5,28.3,29.99,WNW,292,3.0,14.0,69,0.00,,---,0.00,VWS V14.01,2013-03-13 05:50:00,
2013-03-13 02:00:00,37.2,28.0,29.99,WNW,292,1.0,6.0,69,0.00,,---,0.00,VWS V14.01,2013-03-13 06:00:00,
2013-03-13 02:10:00,36.9,27.7,29.99,West,270,0.0,4.0,69,0.00,,---,0.00,VWS V14.01,2013-03-13 06:10:00,
2013-03-13 02:20:00,36.6,27.4,30.00,WSW,248,2.0,13.0,69,0.00,,---,0.00,VWS V14.01,2013-03-13 06:20:00,
2013-03-13 02:30:00,36.5,27.0,29.99,West,270,2.0,13.0,68,0.00,,---,0.00,VWS V14.01,2013-03-13 06:30:00,
2013-03-13 02:40:00,36.2,26.7,29.99,SW,225,1.0,5.0,68,0.00,,---,0.00,VWS V14.01,2013-03-13 06:40:00,
2013-03-13 02:50:00,36.2,26.3,29.99,WNW,292,4.0,11.0,67,0.00,,---,0.00,VWS V14.01,2013-03-13 06:50:00,
2013-03-13 03:00:00,35.9,26.0,29.99,WNW,292,0.0,0.0,67,0.00,,---,0.00,VWS V14.01,2013-03-13 07:00:00,
2013-03-13 03:10:00,35.5,25.6,29.99,NW,315,0.0,2.0,67,0.00,,---,0.00,VWS V14.01,2013-03-13 07:10:00,
2013-03-13 03:20:00,35.2,25.0,29.99,NW,315,0.0,3.0,66,0.00,,---,0.00,VWS V14.01,2013-03-13 07:20:00,
2013-03-13 03:30:00,34.9,24.7,29.99,West,270,0.0,3.0,66,0.00,,---,0.00,VWS V14.01,2013-03-13 07:30:00,
2013-03-13 03:40:00,34.4,25.0,29.99,West,270,0.0,0.0,68,0.00,,---,0.00,VWS V14.01,2013-03-13 07:40:00,
2013-03-13 03:50:00,34.0,24.9,29.99,West,270,0.0,5.0,69,0.00,,---,0.00,VWS V14.01,2013-03-13 07:50:00,
2013-03-13 04:00:00,33.4,24.3,30.00,West,270,0.0,0.0,69,0.00,,---,0.00,VWS V14.01,2013-03-13 08:00:00,
2013-03-13 04:10:00,33.1,24.0,30.00,West,270,0.0,2.0,69,0.00,,---,0.00,VWS V14.01,2013-03-13 08:10:00,
2013-03-13 04:20:00,32.9,23.9,30.00,West,270,0.0,3.0,69,0.00,,---,0.00,VWS V14.01,2013-03-13 08:20:00,
2013-03-13 04:30:00,32.9,23.5,30.00,West,270,0.0,3.0,68,0.00,,---,0.00,VWS V14.01,2013-03-13 08:30:00,
2013-03-13 04:40:00,33.1,23.4,30.00,West,270,1.0,5.0,67,0.00,,---,0.00,VWS V14.01,2013-03-13 08:40:00,
2013-03-13 04:50:00,33.2,23.5,30.00,WSW,248,0.0,2.0,67,0.00,,---,0.00,VWS V14.01,2013-03-13 08:50:00,
2013-03-13 05:00:00,33.1,23.4,30.00,WSW,248,0.0,2.0,67,0.00,,---,0.00,VWS V14.01,2013-03-13 09:00:00,
2013-03-13 05:10:00,32.9,23.5,30.00,WSW,248,0.0,0.0,68,0.00,,---,0.00,VWS V14.01,2013-03-13 09:10:00,
2013-03-13 05:20:00,32.9,23.5,30.01,WSW,248,0.0,3.0,68,0.00,,---,0.00,VWS V14.01,2013-03-13 09:20:00,
2013-03-13 05:30:00,32.8,23.1,30.01,WSW,248,0.0,5.0,67,0.00,,---,0.00,VWS V14.01,2013-03-13 09:30:00,
2013-03-13 05:40:00,32.9,22.8,30.01,WSW,248,0.0,5.0,66,0.00,,---,0.00,VWS V14.01,2013-03-13 09:40:00,
2013-03-13 05:50:00,32.9,23.2,30.01,WSW,248,0.0,0.0,67,0.00,,---,0.00,VWS V14.01,2013-03-13 09:50:00,
2013-03-13 06:00:00,32.7,23.0,30.01,WSW,248,0.0,5.0,67,0.00,,---,0.00,VWS V14.01,2013-03-13 10:00:00,
2013-03-13 06:10:00,32.8,22.7,30.01,West,270,2.0,10.0,66,0.00,,---,0.00,VWS V14.01,2013-03-13 10:10:00,
2013-03-13 06:20:00,33.1,23.0,30.03,WNW,292,2.0,6.0,66,0.00,,---,0.00,VWS V14.01,2013-03-13 10:20:00,
2013-03-13 06:30:00,33.1,23.0,30.03,WNW,292,1.0,5.0,66,0.00,,---,0.00,VWS V14.01,2013-03-13 10:30:00,
2013-03-13 06:40:00,33.1,23.0,30.03,WNW,292,0.0,5.0,66,0.00,,---,0.00,VWS V14.01,2013-03-13 10:40:00,
2013-03-13 06:50:00,32.9,23.2,30.03,WNW,292,0.0,4.0,67,0.00,,---,0.00,VWS V14.01,2013-03-13 10:50:00,
2013-03-13 07:00:00,32.9,23.2,30.04,WNW,292,0.0,2.0,67,0.00,,---,0.00,VWS V14.01,2013-03-13 11:00:00,
2013-03-13 07:10:00,32.9,23.2,30.04,WNW,292,0.0,6.0,67,0.00,,---,0.00,VWS V14.01,2013-03-13 11:10:00,
2013-03-13 07:20:00,33.1,23.4,30.05,WNW,292,1.0,6.0,67,0.00,,---,0.00,VWS V14.01,2013-03-13 11:20:00,
2013-03-13 07:30:00,33.5,23.4,30.05,NW,315,0.0,2.0,66,0.00,,---,0.00,VWS V14.01,2013-03-13 11:30:00,
2013-03-13 07:40:00,34.1,23.6,30.05,West,270,2.0,8.0,65,0.00,,---,0.00,VWS V14.01,2013-03-13 11:40:00,
2013-03-13 07:50:00,35.0,23.7,30.05,WSW,248,1.0,6.0,63,0.00,,---,0.00,VWS V14.01,2013-03-13 11:50:00,
2013-03-13 08:00:00,35.6,23.9,30.04,West,270,2.0,8.0,62,0.00,,---,0.00,VWS V14.01,2013-03-13 12:00:00,
2013-03-13 08:10:00,36.2,24.1,30.04,West,270,4.0,9.0,61,0.00,,---,0.00,VWS V14.01,2013-03-13 12:10:00,
2013-03-13 08:20:00,36.8,24.6,30.04,West,270,2.0,6.0,61,0.00,,---,0.00,VWS V14.01,2013-03-13 12:20:00,
2013-03-13 08:30:00,37.5,24.5,30.05,West,270,3.0,10.0,59,0.00,,---,0.00,VWS V14.01,2013-03-13 12:30:00,
2013-03-13 08:40:00,37.6,24.6,30.05,West,270,2.0,8.0,59,0.00,,---,0.00,VWS V14.01,2013-03-13 12:40:00,
2013-03-13 08:50:00,38.0,25.0,30.05,West,270,3.0,10.0,59,0.00,,---,0.00,VWS V14.01,2013-03-13 12:50:00,
2013-03-13 09:00:00,38.2,26.3,30.05,NW,315,4.0,12.0,62,0.00,,---,0.00,VWS V14.01,2013-03-13 13:00:00,
2013-03-13 09:10:00,37.9,26.1,30.05,WNW,292,5.0,13.0,62,0.00,,---,0.00,VWS V14.01,2013-03-13 13:10:00,
2013-03-13 09:20:00,37.9,26.8,30.05,WNW,292,4.0,10.0,64,0.00,,---,0.00,VWS V14.01,2013-03-13 13:20:00,
2013-03-13 09:30:00,38.5,26.6,30.05,West,270,4.0,11.0,62,0.00,,---,0.00,VWS V14.01,2013-03-13 13:30:00,
2013-03-13 09:40:00,38.9,25.0,30.05,West,270,6.0,18.0,57,0.00,,---,0.00,VWS V14.01,2013-03-13 13:40:00,
2013-03-13 09:50:00,39.6,26.1,30.05,WNW,292,5.0,13.0,58,0.00,,---,0.00,VWS V14.01,2013-03-13 13:50:00,
2013-03-13 10:00:00,39.9,25.5,30.05,WNW,292,6.0,13.0,56,0.00,,---,0.00,VWS V14.01,2013-03-13 14:00:00,
2013-03-13 10:10:00,39.9,25.9,30.05,NW,315,5.0,13.0,57,0.00,,---,0.00,VWS V14.01,2013-03-13 14:10:00,
2013-03-13 10:20:00,40.1,25.2,30.04,West,270,6.0,13.0,55,0.00,,---,0.00,VWS V14.01,2013-03-13 14:20:00,
2013-03-13 10:30:00,40.2,24.5,30.04,West,270,9.0,22.0,53,0.00,,---,0.00,VWS V14.01,2013-03-13 14:30:00,
2013-03-13 10:40:00,41.1,24.4,30.04,WNW,292,7.0,15.0,51,0.00,,---,0.00,VWS V14.01,2013-03-13 14:40:00,
2013-03-13 10:50:00,40.6,25.3,30.04,NW,315,5.0,14.0,54,0.00,,---,0.00,VWS V14.01,2013-03-13 14:50:00,
2013-03-13 11:00:00,41.1,25.7,30.04,WNW,292,5.0,19.0,54,0.00,,---,0.00,VWS V14.01,2013-03-13 15:00:00,
2013-03-13 11:10:00,41.3,25.0,30.04,West,270,5.0,13.0,52,0.00,,---,0.00,VWS V14.01,2013-03-13 15:10:00,
2013-03-13 11:20:00,41.8,24.1,30.03,West,270,7.0,14.0,49,0.00,,---,0.00,VWS V14.01,2013-03-13 15:20:00,
2013-03-13 11:30:00,42.2,24.4,30.02,WNW,292,4.0,12.0,49,0.00,,---,0.00,VWS V14.01,2013-03-13 15:30:00,
2013-03-13 11:40:00,42.3,19.1,30.02,West,270,8.0,24.0,39,0.00,,---,0.00,VWS V14.01,2013-03-13 15:40:00,
2013-03-13 11:50:00,42.3,19.1,30.02,West,270,9.0,19.0,39,0.00,,---,0.00,VWS V14.01,2013-03-13 15:50:00,
2013-03-13 12:00:00,42.8,19.0,30.03,WSW,248,8.0,17.0,38,0.00,,---,0.00,VWS V14.01,2013-03-13 16:00:00,
2013-03-13 12:10:00,42.8,19.6,30.03,WNW,292,6.0,19.0,39,0.00,,---,0.00,VWS V14.01,2013-03-13 16:10:00,
2013-03-13 12:20:00,43.6,19.7,30.02,WSW,248,6.0,17.0,38,0.00,,---,0.00,VWS V14.01,2013-03-13 16:20:00,
2013-03-13 12:30:00,44.1,20.7,30.02,West,270,5.0,12.0,39,0.00,,---,0.00,VWS V14.01,2013-03-13 16:30:00,
2013-03-13 12:40:00,44.2,20.2,30.02,NW,315,5.0,14.0,38,0.00,,---,0.00,VWS V14.01,2013-03-13 16:40:00,
2013-03-13 12:50:00,43.6,20.3,30.02,WSW,248,7.0,14.0,39,0.00,,---,0.00,VWS V14.01,2013-03-13 16:50:00,
2013-03-13 13:00:00,44.3,20.3,30.01,WSW,248,5.0,10.0,38,0.00,,---,0.00,VWS V14.01,2013-03-13 17:00:00,
2013-03-13 13:10:00,43.9,20.0,30.01,WSW,248,6.0,14.0,38,0.00,,---,0.00,VWS V14.01,2013-03-13 17:10:00,
2013-03-13 13:20:00,43.9,21.2,30.02,WSW,248,5.0,12.0,40,0.00,,---,0.00,VWS V14.01,2013-03-13 17:20:00,
2013-03-13 13:30:00,43.2,19.9,30.02,West,270,7.0,19.0,39,0.00,,---,0.00,VWS V14.01,2013-03-13 17:30:00,
2013-03-13 13:40:00,43.5,20.2,30.02,West,270,4.0,13.0,39,0.00,,---,0.00,VWS V14.01,2013-03-13 17:40:00,
2013-03-13 13:50:00,44.2,20.2,30.01,WNW,292,4.0,13.0,38,0.00,,---,0.00,VWS V14.01,2013-03-13 17:50:00,
2013-03-13 14:00:00,43.6,20.3,30.01,NW,315,4.0,13.0,39,0.00,,---,0.00,VWS V14.01,2013-03-13 18:00:00,
2013-03-13 14:10:00,42.8,20.2,30.01,West,270,7.0,16.0,40,0.00,,---,0.00,VWS V14.01,2013-03-13 18:10:00,
2013-03-13 14:20:00,42.2,20.2,30.02,West,270,5.0,13.0,41,0.00,,---,0.00,VWS V14.01,2013-03-13 18:20:00,
2013-03-13 14:30:00,42.5,20.5,30.02,WSW,248,6.0,16.0,41,0.00,,---,0.00,VWS V14.01,2013-03-13 18:30:00,
2013-03-13 14:40:00,42.3,20.9,30.02,WNW,292,5.0,16.0,42,0.00,,---,0.00,VWS V14.01,2013-03-13 18:40:00,
2013-03-13 14:50:00,41.8,19.8,30.03,WNW,292,6.0,13.0,41,0.00,,---,0.00,VWS V14.01,2013-03-13 18:50:00,
2013-03-13 15:00:00,41.3,19.4,30.04,WNW,292,6.0,16.0,41,0.00,,---,0.00,VWS V14.01,2013-03-13 19:00:00,
2013-03-13 15:10:00,41.8,19.8,30.04,WNW,292,4.0,12.0,41,0.00,,---,0.00,VWS V14.01,2013-03-13 19:10:00,
2013-03-13 15:20:00,41.3,18.8,30.05,WNW,292,6.0,14.0,40,0.00,,---,0.00,VWS V14.01,2013-03-13 19:20:00,
2013-03-13 15:30:00,40.6,19.3,30.05,West,270,8.0,20.0,42,0.00,,---,0.00,VWS V14.01,2013-03-13 19:30:00,
2013-03-13 15:40:00,39.8,19.1,30.05,WNW,292,8.0,21.0,43,0.00,,---,0.00,VWS V14.01,2013-03-13 19:40:00,
2013-03-13 15:50:00,39.5,18.3,30.06,West,270,8.0,17.0,42,0.00,,---,0.00,VWS V14.01,2013-03-13 19:50:00,
2013-03-13 16:00:00,38.8,18.8,30.07,West,270,9.0,16.0,44,0.00,,---,0.00,VWS V14.01,2013-03-13 20:00:00,
2013-03-13 16:10:00,38.3,19.4,30.07,West,270,8.0,18.0,46,0.00,,---,0.00,VWS V14.01,2013-03-13 20:10:00,
2013-03-13 16:20:00,37.8,19.9,30.07,WNW,292,9.0,20.0,48,0.00,,---,0.00,VWS V14.01,2013-03-13 20:20:00,
2013-03-13 16:30:00,37.5,19.6,30.07,West,270,7.0,16.0,48,0.00,,---,0.00,VWS V14.01,2013-03-13 20:30:00,
2013-03-13 16:40:00,37.5,18.6,30.07,WSW,248,5.0,18.0,46,0.00,,---,0.00,VWS V14.01,2013-03-13 20:40:00,
2013-03-13 16:50:00,37.0,18.7,30.07,WSW,248,6.0,17.0,47,0.00,,---,0.00,VWS V14.01,2013-03-13 20:50:00,
2013-03-13 17:00:00,36.6,18.8,30.07,WSW,248,6.0,13.0,48,0.00,,---,0.00,VWS V14.01,2013-03-13 21:00:00,
2013-03-13 17:10:00,36.6,19.3,30.07,West,270,4.0,18.0,49,0.00,,---,0.00,VWS V14.01,2013-03-13 21:10:00,
2013-03-13 17:20:00,36.3,19.5,30.08,WNW,292,4.0,12.0,50,0.00,,---,0.00,VWS V14.01,2013-03-13 21:20:00,
2013-03-13 17:30:00,35.9,20.0,30.08,West,270,4.0,16.0,52,0.00,,---,0.00,VWS V14.01,2013-03-13 21:30:00,
2013-03-13 17:40:00,35.0,19.6,30.08,West,270,6.0,18.0,53,0.00,,---,0.00,VWS V14.01,2013-03-13 21:40:00,
2013-03-13 17:50:00,34.6,19.2,30.10,NNW,338,2.0,7.0,53,0.00,,---,0.00,VWS V14.01,2013-03-13 21:50:00,
2013-03-13 18:00:00,33.7,18.4,30.11,WSW,248,3.0,8.0,53,0.00,,---,0.00,VWS V14.01,2013-03-13 22:00:00,
2013-03-13 18:10:00,33.1,18.3,30.11,West,270,3.0,13.0,54,0.00,,---,0.00,VWS V14.01,2013-03-13 22:10:00,
2013-03-13 18:20:00,32.7,18.3,30.11,West,270,4.0,11.0,55,0.00,,---,0.00,VWS V14.01,2013-03-13 22:20:00,
2013-03-13 18:30:00,32.2,17.9,30.12,WSW,248,5.0,16.0,55,0.00,,---,0.00,VWS V14.01,2013-03-13 22:30:00,
2013-03-13 18:40:00,31.9,17.6,30.12,WSW,248,4.0,13.0,55,0.00,,---,0.00,VWS V14.01,2013-03-13 22:40:00,
2013-03-13 18:50:00,31.8,17.5,30.13,WNW,292,5.0,19.0,55,0.00,,---,0.00,VWS V14.01,2013-03-13 22:50:00,
2013-03-13 19:00:00,31.5,17.6,30.13,West,270,3.0,10.0,56,0.00,,---,0.00,VWS V14.01,2013-03-13 23:00:00,
2013-03-13 19:10:00,31.3,17.4,30.13,West,270,5.0,13.0,56,0.00,,---,0.00,VWS V14.01,2013-03-13 23:10:00,
2013-03-13 19:20:00,31.0,18.0,30.12,WSW,248,6.0,17.0,58,0.00,,---,0.00,VWS V14.01,2013-03-13 23:20:00,
2013-03-13 19:30:00,30.7,17.3,30.13,West,270,7.0,18.0,57,0.00,,---,0.00,VWS V14.01,2013-03-13 23:30:00,
2013-03-13 19:40:00,30.4,17.0,30.13,West,270,7.0,16.0,57,0.00,,---,0.00,VWS V14.01,2013-03-13 23:40:00,
2013-03-13 19:50:00,30.3,16.5,30.12,West,270,7.0,16.0,56,0.00,,---,0.00,VWS V14.01,2013-03-13 23:50:00,
2013-03-13 20:00:00,30.3,16.5,30.14,WSW,248,6.0,13.0,56,0.00,,---,0.00,VWS V14.01,2013-03-14 00:00:00,
2013-03-13 20:10:00,30.1,16.7,30.14,WNW,292,6.0,21.0,57,0.00,,---,0.00,VWS V14.01,2013-03-14 00:10:00,
2013-03-13 20:20:00,30.0,17.0,30.13,West,270,5.0,14.0,58,0.00,,---,0.00,VWS V14.01,2013-03-14 00:20:00,
2013-03-13 20:30:00,29.7,16.4,30.13,West,270,7.0,18.0,57,0.00,,---,0.00,VWS V14.01,2013-03-14 00:30:00,
2013-03-13 20:40:00,29.4,16.5,30.13,West,270,5.0,14.0,58,0.00,,---,0.00,VWS V14.01,2013-03-14 00:40:00,
2013-03-13 20:50:00,29.3,16.4,30.13,WSW,248,6.0,13.0,58,0.00,,---,0.00,VWS V14.01,2013-03-14 00:50:00,
2013-03-13 21:00:00,29.0,16.1,30.15,WSW,248,3.0,14.0,58,0.00,,---,0.00,VWS V14.01,2013-03-14 01:00:00,
2013-03-13 21:10:00,28.8,15.9,30.15,WSW,248,4.0,14.0,58,0.00,,---,0.00,VWS V14.01,2013-03-14 01:10:00,
2013-03-13 21:20:00,28.7,15.8,30.14,WSW,248,5.0,14.0,58,0.00,,---,0.00,VWS V14.01,2013-03-14 01:20:00,
2013-03-13 21:30:00,28.4,15.5,30.13,WSW,248,5.0,11.0,58,0.00,,---,0.00,VWS V14.01,2013-03-14 01:30:00,
2013-03-13 21:40:00,28.2,15.7,30.13,SW,225,4.0,14.0,59,0.00,,---,0.00,VWS V14.01,2013-03-14 01:40:00,
2013-03-13 21:50:00,28.1,15.6,30.14,WSW,248,2.0,6.0,59,0.00,,---,0.00,VWS V14.01,2013-03-14 01:50:00,
2013-03-13 22:30:00,27.2,14.0,30.14,WSW,257,3.0,3.0,57,0.00,,---,0.00,VWS V14.01,2013-03-14 02:30:00,
2013-03-13 22:31:00,27.2,14.0,30.14,WNW,282,6.0,6.0,57,0.00,,---,0.00,VWS V14.01,2013-03-14 02:31:00,
2013-03-13 22:32:00,27.2,14.4,30.14,WSW,247,6.0,14.0,58,0.00,,---,0.00,VWS V14.01,2013-03-14 02:32:00,
2013-03-13 22:33:00,27.2,14.0,30.14,West,281,7.0,14.0,57,0.00,,---,0.00,VWS V14.01,2013-03-14 02:33:00,
2013-03-13 22:34:00,27.2,14.0,30.14,WNW,293,1.0,14.0,57,0.00,,---,0.00,VWS V14.01,2013-03-14 02:34:00,
2013-03-13 22:35:00,27.2,14.0,30.14,WNW,286,3.0,14.0,57,0.00,,---,0.00,VWS V14.01,2013-03-14 02:35:00,
2013-03-13 22:36:00,27.0,13.8,30.14,SW,231,3.0,14.0,57,0.00,,---,0.00,VWS V14.01,2013-03-14 02:36:00,
2013-03-13 22:37:00,27.0,13.8,30.14,North,5,10.0,14.0,57,0.00,,---,0.00,VWS V14.01,2013-03-14 02:37:00,
2013-03-13 22:38:00,27.0,13.8,30.14,WNW,286,3.0,14.0,57,0.00,,---,0.00,VWS V14.01,2013-03-14 02:38:00,
2013-03-13 22:39:00,27.0,13.8,30.14,West,268,6.0,14.0,57,0.00,,---,0.00,VWS V14.01,2013-03-14 02:39:00,
2013-03-13 22:40:00,27.0,13.8,30.14,West,262,8.0,14.0,57,0.00,,---,0.00,VWS V14.01,2013-03-14 02:40:00,
2013-03-13 22:41:00,27.0,13.8,30.14,SSW,209,11.0,11.0,57,0.00,,---,0.00,VWS V14.01,2013-03-14 02:41:00,
2013-03-13 22:42:00,27.0,13.8,30.14,SW,221,5.0,11.0,57,0.00,,---,0.00,VWS V14.01,2013-03-14 02:42:00,
2013-03-13 22:43:00,27.0,13.8,30.14,WNW,293,2.0,11.0,57,0.00,,---,0.00,VWS V14.01,2013-03-14 02:43:00,
2013-03-13 22:44:00,27.0,14.2,30.14,NW,306,3.0,11.0,58,0.00,,---,0.00,VWS V14.01,2013-03-14 02:44:00,
2013-03-13 22:45:00,26.9,13.7,30.14,West,274,6.0,11.0,57,0.00,,---,0.00,VWS V14.01,2013-03-14 02:45:00,
2013-03-13 22:46:00,26.9,13.7,30.14,WSW,241,3.0,11.0,57,0.00,,---,0.00,VWS V14.01,2013-03-14 02:46:00,
2013-03-13 22:47:00,26.9,13.7,30.14,West,274,6.0,11.0,57,0.00,,---,0.00,VWS V14.01,2013-03-14 02:47:00,
2013-03-13 22:48:00,26.9,13.7,30.14,WSW,244,7.0,11.0,57,0.00,,---,0.00,VWS V14.01,2013-03-14 02:48:00,
2013-03-13 22:49:00,26.9,13.7,30.14,WNW,286,5.0,11.0,57,0.00,,---,0.00,VWS V14.01,2013-03-14 02:49:00,
2013-03-13 22:50:00,26.9,13.7,30.14,WSW,241,13.0,17.0,57,0.00,,---,0.00,VWS V14.01,2013-03-14 02:50:00,
2013-03-13 22:51:00,26.9,13.7,30.14,WSW,255,9.0,13.0,57,0.00,,---,0.00,VWS V14.01,2013-03-14 02:51:00,
2013-03-13 22:52:00,26.9,13.7,30.14,West,281,14.0,14.0,57,0.00,,---,0.00,VWS V14.01,2013-03-14 02:52:00,
2013-03-13 22:53:00,26.7,13.5,30.14,NNW,330,10.0,14.0,57,0.00,,---,0.00,VWS V14.01,2013-03-14 02:53:00,
2013-03-13 22:57:00,26.7,13.5,30.14,WSW,257,1.0,14.0,57,0.00,,---,0.00,VWS V14.01,2013-03-14 02:57:00,
2013-03-13 22:58:00,26.7,13.5,30.14,WSW,258,5.0,14.0,57,0.00,,---,0.00,VWS V14.01,2013-03-14 02:58:00,
2013-03-13 22:59:00,26.7,13.5,30.14,West,272,6.0,14.0,57,0.00,,---,0.00,VWS V14.01,2013-03-14 02:59:00,
2013-03-13 23:00:00,26.7,13.5,30.14,NW,317,5.0,14.0,57,0.00,,---,0.00,VWS V14.01,2013-03-14 03:00:00,
2013-03-13 23:01:00,26.7,13.5,30.14,West,279,1.0,6.0,57,0.00,,---,0.00,VWS V14.01,2013-03-14 03:01:00,
2013-03-13 23:52:00,26.9,13.7,30.14,West,275,2.0,13.0,57,0.00,,---,0.00,VWS V14.01,2013-03-14 03:52:00,
2013-03-13 23:57:00,26.7,13.1,30.14,WSW,240,3.0,14.0,56,0.00,,---,0.00,VWS V14.01,2013-03-14 03:57:00,